STARLINK-32465, 61716

Orbit data source: Space-Track

STARLINK-32465, 61716 is a payload satellite owned by SpaceX/Seattle (US) in LEO that was launched on Wed, 30 Oct 2024 UTC via an FALCON 9 launch vehicle from the Air Force Eastern Test Range (AFETR). Payload-class satellites include a variety of spacecraft equipped with specific instruments for various scientific and technological missions. These include communications satellites like Starlink; space stations such as the ISS; scientific satellites like the Hubble; Earth observation satellites from companies like Planet Labs, Umbra, and HawkEye 360; GPS; miniature CubeSats for education and research; and military/defense satellites.

Loading next visibility...
Identifier
61716, 2024-196K
Orbit
LEO
Country
Flag of USUS
Related business
Manufacturer
SpaceX/Seattle
Mission
Operational spacecraft
Bus & Motor
STARLINK V2M, Unknown motor
Mass
730 kg wet, ~700 kg dry
Launch date (UTC)
2024-10-30 (1 year ago)
Launch vehicle
FALCON 9
Launch site
Air Force Eastern Test Range (AFETR)
Object type
Payload
Rocket body
Debris
Shape & HBR
Unknown shape, 17.7 m
Radar Cross Section
Large (>1 m²)

Expand to show TLE details & history
Last TLE update: 1 day ago

TLE from 1 day ago
0 STARLINK-32465
1 61716U 24196K   25315.21509673  .00002011  00000-0  80036-4 0  9997
2 61716  53.1607 291.9252 0001183  78.4490 281.6643 15.30189920 59013
Epoch: 2025-11-11T05:09Z
TLE epoch observation values (Epoch: 2025-11-11T05:09:44.357Z)
Latitude
-0.00006°
Longitude
163.88548°
Altitude
475.981 km
Speed
7.629 km/s
True Right ascension
19h 27m 42s
True Declination
0° 00' 00"
Sunlit
Object was in daylight at epoch
Visualization orbit readout
Latitude
Unknown
Longitude
Unknown
Altitude
Unknown
Speed
Unknown
Apparent Right ascension
Unknown
Apparent Declination
Unknown
Sunlit
N/A
Visualization observer readout
Local Sidereal Time
01:17:45
Azimuth
Unknown
Elevation
Unknown
Doppler factor
Unknown
Orbital elements
Apogee altitude
476.312 km
Perigee altitude
474.691 km
Semi-major axis
6,853.638 km
Eccentricity
0.00012
Inclination
53.1607°
RAAN
291.9252°
Arg. of periapsis
78.449°
True anomaly
281.65102°
Mean anomaly
281.6643°
Eccentric anomaly
281.65766°
Mean motion
3.82526 °/min
Orbital period
94.11 mins
BSTAR
0.000080036
Loading maneuver chart data...
Computing Atmospheric mass density...
Loading historical data...
Loading historical data...
Loading historical data...
Loading historical data...
Loading historical data...
Loading historical data...
Loading historical data...

Documentation

Showing up to 5 results
|